Find STARLINK-37852

NORAD ID: 799501013 Int'l Des: 2026-143P Constellation: starlink operational

当前视图

正在加载3D地球...

About STARLINK-37852

STARLINK-37852 (NORAD 799501013) is a starlink constellation satellite launched Jun 15, 2026

关于 STARLINK-37852

正在加载描述...

即将过境

Passes for default location (London). Set your location on the main map for personalized predictions.

高度历史

Loading altitude history...

两行轨道根数

1 99999C 2026143P 26173.18034721 .00437970 00000-0 663060-4 0 1737
2 99999 97.2817 216.0411 0011149 273.9478 140.4040 16.04212623 13
Epoch: Jun 22, 2026 • Age: 3 hours